Flag for U.S.A. Weather past 2 weeks in Juneau, Alaska, U.S.A.

Now
54 °F

Light rain. Mostly cloudy.


Feels Like: 54 °F
Forecast: 54 / 61 °F
Wind: No wind

Location: Juneau International Airport

Current Time: Jul 24, 2014 at 10:25:19 AM

Latest Report: Jul 24, 2014 at 9:53 AM


Visibility: 10 mi

Pressure: 29.90 "Hg

Humidity: 90%

Dew point: 51 °F

Location of JuneauLocation

Historic Weather in Juneau — Graph

°F

Juneau temperature yesterday

Maximum temperature yesterday: 64 °F (at 1:53 PM)
Minimum temperature yesterday: 56 °F (at 5:53 AM)
Average temperature yesterday: 60 °F

Past Weeks' High & Low Weather Summary

 TemperatureHumidityPressure
High71 °F (Jul 21, 6:53 PM)100% (Jul 10, 4:53 AM)30.23 "Hg (Jul 10, 4:53 AM)
Low48 °F (Jul 11, 3:53 AM)42% (Jul 18, 3:53 PM)29.61 "Hg (Jul 18, 5:53 PM)
Average58 °F82%30.02 "Hg
* Reported Jul 9 8:53 AM — Jul 24 8:53 AM, Juneau, Weather by CustomWeather, © 2014

Note: Actual official high and low records may vary slightly from our data, if they occured in-between our weather recording intervals... More about our weather records

Advertising

Juneau weather history for previous 24 hours

 ConditionsComfort  
Time TempWeatherWind HumidityBarometerVisibility
8:53 AM
Jul 24
56 °FLight rain. Mostly cloudy.3 mph87%29.90 "Hg10 mi
7:53 AM55 °FMostly cloudy.3 mph93%29.90 "Hg10 mi
6:53 AM54 °FLight rain. Mostly cloudy.3 mph97%29.90 "Hg8 mi
5:53 AM53 °FCloudy.No wind89%29.90 "Hg10 mi
4:53 AM53 °FMostly cloudy.No wind89%29.91 "Hg10 mi
3:53 AM53 °FLight rain. Mostly cloudy.No wind89%29.91 "Hg10 mi
2:53 AM54 °FLight rain. Mostly cloudy.No wind83%29.92 "Hg10 mi
1:53 AM54 °FMostly cloudy.No wind83%29.92 "Hg10 mi
12:53 AM55 °FLight rain. Mostly cloudy.No wind83%29.93 "Hg10 mi
11:53 PM
Jul 23
56 °FMostly cloudy.No wind84%29.94 "Hg10 mi
10:53 PM57 °FOvercast.No wind81%29.95 "Hg10 mi
9:53 PM57 °FCloudy.No wind87%29.96 "Hg10 mi
8:53 PM60 °FCloudy.No wind75%29.96 "Hg10 mi
7:53 PM61 °FLight rain. Cloudy.No wind70%29.97 "Hg10 mi
6:53 PM61 °FMostly cloudy.6 mph62%29.97 "Hg10 mi
5:53 PM61 °FMostly cloudy.13 mph70%29.98 "Hg10 mi
4:53 PM64 °FMostly cloudy.8 mph63%29.98 "Hg10 mi
3:53 PM63 °FMostly cloudy.14 mph68%29.98 "Hg10 mi
2:53 PM63 °FPartly sunny.10 mph65%29.99 "Hg10 mi
1:53 PM64 °FBroken clouds.12 mph63%30.00 "Hg10 mi
12:53 PM62 °FBroken clouds.10 mph70%30.01 "Hg10 mi
11:53 AM63 °FBroken clouds.6 mph70%30.02 "Hg10 mi
10:53 AM60 °FBroken clouds.14 mph78%30.02 "Hg10 mi
Weather by CustomWeather, © 2014

See weather overviewHow to use our weather pages